Effective Sunday, March 17, 2024, the National Weather Service National Data Buoy Center will discontinue its Dial-A-Buoy Interactive Voice Response system. For more information, see Service Change Notice 24-06 (PDF).

Station CMTI2 - 9087044 - Calumet Harbor, IL Image indicating link to RSS feed of recent meteorological observations for station CMTI2


Conditions at CMTI2 as of
(10:00 am CST)
1600 GMT on 02/24/2024:
     

Click on the graph icon in the table below to see a time series plot of the last five days of that observation.

5-day plot - Wind Direction Wind Direction (WDIR): N ( 360 deg true )
5-day plot - Wind Speed Wind Speed (WSPD):6.2 m/s
5-day plot - Wind Gust Wind Gust (GST):13.4 m/s
5-day plot - Atmospheric Pressure Atmospheric Pressure (PRES):1018.0 mb
5-day plot - Wind Speed at 10 Meters Wind Speed at 10 meters (WSPD10M): 6 m/s
5-day plot - Wind Speed at 20 Meters Wind Speed at 20 meters (WSPD20M): 7 m/s
5-day plot -  Wind Speed, Wind Gust and Atmospheric Pressure Combined plot of Wind Speed, Gust, and Air Pressure
NOS Water Level Observation Network Water Level
Previous observations
TIME
(CST)
5-day plot - Wind Direction
WDIR
 
5-day plot - Wind Speed
WSPD
m/s
5-day plot - Wind Gust
GST
m/s
5-day plot - Wave Height
WVHT
m
5-day plot - Dominant Wave Period
DPD
sec
5-day plot - Average Wave Period
APD
sec
5-day plot - Mean Wave Direction
MWD
 
5-day plot - Atmospheric Pressure
PRES
mb
5-day plot - Pressure Tendency
PTDY
mb
5-day plot - Air Temperature
ATMP
°C
5-day plot - Water Temperature
WTMP
°C
5-day plot - Dew Point
DEWP
°C
5-day plot - Salinity
SAL
psu
5-day plot - Visibility
VIS
km
5-day plot - Tide (above MLLW)
TIDE
m
2024-02-24 09:54 am N 4.6 15.4----1018.2-------
2024-02-24 09:48 am N 4.1 7.2----1018.1-------
2024-02-24 09:42 am N 6.2 8.8----1018.0-------
2024-02-24 09:36 am N 5.1 8.2----1018.1-------
2024-02-24 09:30 am N 5.1 13.9----1018.2- -3.6- -8.9---
2024-02-24 09:24 am N 9.3 14.9----1018.1- -3.8- -9.1---
2024-02-24 09:18 am N 6.7 9.8----1018.1- -3.3- -8.5---
2024-02-24 09:12 am N 4.6 7.2----1018.1- -3.8- -9.1---
2024-02-24 09:06 am N 5.7 9.8----1018.0- -4.0- -9.4---
2024-02-24 09:00 am N 6.7 8.2------------
2024-02-24 08:54 am N 6.2 9.8------------
2024-02-24 08:48 am N 5.7 9.8----1017.5-------
2024-02-24 08:42 am N 6.2 8.2----1017.5-------
2024-02-24 08:36 am N 7.2 10.3----1017.4-------
2024-02-24 08:30 am N 6.7 10.3----1017.3- -3.7- -8.8---
2024-02-24 08:24 am N 5.7 8.8----1017.1- -3.9- -8.9---
2024-02-24 08:18 am N 5.7 7.2----1017.0- -3.7- -8.7---
2024-02-24 08:12 am N 5.1 7.7----1017.0- -4.0- -9.0---
2024-02-24 08:06 am N 5.7 9.3----1017.0- -3.8- -8.7---
2024-02-24 08:00 am N 5.7 9.8----1017.0 +2.4 -4.0- -8.9---
2024-02-24 07:54 amNNE 6.7 8.2----1016.7- -4.0- -9.0---
2024-02-24 07:48 am N 5.7 7.7------------
2024-02-24 07:42 am N 5.1 8.2------------
2024-02-24 07:36 amNNE 5.7 8.2------------
2024-02-24 07:30 amNNE 5.7 9.8----1016.5-------
2024-02-24 07:24 amNNE 5.7 7.7----1016.4-------
2024-02-24 07:18 am N 6.2 8.2----1016.3-------
2024-02-24 07:12 am N 4.6 10.8----1016.4-------
2024-02-24 07:06 am N 5.1 9.3----1016.2-------
2024-02-24 07:00 am--------- -4.1- -9.0---
2024-02-24 06:54 am--------- -4.0- -8.7---
2024-02-24 06:48 amNNE 5.7 8.2----1016.0- -3.9- -8.6---
2024-02-24 06:42 amNNE 7.2 10.3----1016.0- -4.0- -8.8---
2024-02-24 06:36 amNNE 5.1 9.3----1015.8- -4.1- -9.0---
2024-02-24 06:30 am N 5.1 8.2----1015.6-------
2024-02-24 06:24 am N 6.2 9.8----1015.5-------
2024-02-24 06:18 amNNE 5.1 8.2----1015.4-------
2024-02-24 06:12 am N 6.2 10.8----1015.3-------
2024-02-24 06:06 am N 7.2 16.0----1015.3-------
2024-02-24 06:00 am N 6.2 16.5----1015.2 +2.4 -4.1- -9.1---
2024-02-24 05:54 am N 6.7 9.8----1015.3- -3.9- -8.8---
2024-02-24 05:48 amNNE 7.2 10.3----1015.2-------
2024-02-24 05:42 am N 5.7 10.3----1015.2-------
2024-02-24 05:36 am N 6.2 9.8----1015.1-------
2024-02-24 05:30 am N 7.7 10.3----1015.0- -3.9- -8.9---
2024-02-24 05:24 am N 7.2 9.3----1015.0- -4.1- -9.2---
2024-02-24 05:18 am N 6.7 9.8----1014.9- -4.1- -9.1---
2024-02-24 05:12 am N 7.2 10.3----1014.9- -3.9- -8.9---
2024-02-24 05:06 am N 7.2 9.3----1014.8- -4.1- -9.1---
2024-02-24 05:00 am-------1014.6-------
2024-02-24 04:54 am-------1014.5-------
2024-02-24 04:48 am N 7.2 12.4----1014.6- -4.0- -9.3---
2024-02-24 04:42 am N 7.7 9.8----1014.5- -4.0- -9.0---
2024-02-24 04:36 am N 8.2 11.8----1014.4- -4.0- -9.0---
2024-02-24 04:30 amNNE 7.7 11.3----1014.2-------
2024-02-24 04:24 am N 8.2 10.8----1014.1-------
2024-02-24 04:18 am-------1014.0- -4.0- -8.9---
2024-02-24 04:12 am-------1013.9- -4.0- -8.7---
2024-02-24 04:06 am-------1013.8- -3.9- -8.4---
2024-02-24 04:00 am-------1013.6 +1.9------
2024-02-24 03:54 am-------1013.5-------
2024-02-24 03:48 am N 8.2 10.8----1013.4-------
2024-02-24 03:42 am N 7.7 9.8----1013.3-------
2024-02-24 03:36 am N 8.2 11.8----1013.2-------
2024-02-24 03:30 am N 7.7 11.3------------
2024-02-24 03:24 am N 8.8 10.3------------
2024-02-24 03:18 amNNE 7.7 11.3------------
2024-02-24 03:12 am N 7.7 10.8----1013.0- -3.2- -7.1---
2024-02-24 03:06 am N 8.8 12.9----1012.9- -3.2- -7.0---
2024-02-24 03:00 am N 9.8 14.4----1012.8 +1.6 -3.0- -6.7---
2024-02-24 02:54 am N 8.8 11.8----1012.8- -3.0- -6.5---
2024-02-24 02:48 am N 7.7 11.8----1012.8- -2.9- -6.3---
2024-02-24 02:42 amNNE 8.8 12.9----1012.7- -2.9- -6.2---
2024-02-24 02:36 am N 8.8 12.4----1012.7- -2.9- -6.0---
2024-02-24 02:30 am N 9.3 12.9----1012.7-------
2024-02-24 02:24 am N 8.2 13.4----1012.6-------
2024-02-24 02:18 am N 8.8 15.4----1012.6-------
2024-02-24 02:12 am N 7.7 12.4----1012.6-------
2024-02-24 02:06 am N 8.8 20.6----1012.5-------
2024-02-24 02:00 am N 12.4 22.1------------
2024-02-24 01:54 am N 13.9 24.7------------
2024-02-24 01:48 am N 16.5 27.8----1012.2-------
2024-02-24 01:42 am N 10.3 12.9----1012.2-------
2024-02-24 01:36 am N 9.3 14.4----1012.1-------
2024-02-24 01:30 am N 12.9 17.5----1012.1-------
2024-02-24 01:24 am N 10.3 12.9----1011.9-------
2024-02-24 01:18 am N 8.8 22.1----1011.9-------
2024-02-24 01:12 am N 13.9 18.5----1011.8- -2.0- -3.8---
2024-02-24 01:06 am N 11.8 16.0----1011.8- -2.0- -3.7---
2024-02-24 01:00 am-------1011.7 +1.7 -1.9- -3.4---
2024-02-24 12:54 am-------1011.6- -1.9- -3.3---
2024-02-24 12:48 am N 10.8 16.0----1011.5-------
2024-02-24 12:42 am N 8.2 15.4----1011.4-------
2024-02-24 12:36 am N 8.8 12.9----1011.4-------
2024-02-24 12:30 am-------1011.3- -2.0- -2.9---
2024-02-24 12:24 am-------1011.3- -2.1- -3.0---
2024-02-24 12:18 am N 9.8 13.9----1011.3-------
2024-02-24 12:12 am N 11.8 16.5----1011.3-------
2024-02-24 12:06 am N 9.3 13.9----1011.2-------
2024-02-24 12:00 am N 9.3 13.9----1011.2 +1.7 -1.9- -2.3---
2024-02-23 11:54 pm N 9.3 13.9----1011.2- -1.9- -2.2---
2024-02-23 11:48 pm N 9.3 14.9----1011.2-------
2024-02-23 11:42 pm N 9.8 13.9----1011.1-------
2024-02-23 11:36 pm N 8.8 13.9----1011.0-------
2024-02-23 11:30 pm N 11.8 16.0----1011.0- -2.1- -2.1---
2024-02-23 11:24 pm N 9.8 12.9----1010.9- -2.3- -2.3---
2024-02-23 11:18 pm N 10.3 14.9----1011.0- -2.4- -2.4---
2024-02-23 11:12 pm N 10.3 13.9----1011.0- -2.2- -2.2---
2024-02-23 11:06 pm N 10.3 17.0----1010.8- -2.1- -2.1---
2024-02-23 11:00 pm N 9.3 13.9----1010.7 +2.3------
2024-02-23 10:54 pm N 10.3 13.4----1010.6-------
2024-02-23 10:48 pm N 9.8 13.9----1010.5- -2.2- -2.2---
2024-02-23 10:42 pm N 8.8 12.9----1010.5- -2.2- -2.2---
2024-02-23 10:36 pm N 9.8 14.4----1010.4- -2.1- -2.1---
2024-02-23 10:30 pm N 10.3 16.0----1010.3- -2.1- -2.1---
2024-02-23 10:24 pm N 10.3 14.4----1010.3- -2.0- -2.0---
2024-02-23 10:18 pm N 10.8 16.0----1010.1- -2.1- -2.1---
2024-02-23 10:12 pm N 9.3 12.9----1010.1- -2.0- -2.0---
2024-02-23 10:06 pm N 10.8 14.9----1010.1- -2.1- -2.1---
2024-02-23 10:00 pm N 10.8 13.9----1010.0 +2.7 -2.2- -2.2---
2024-02-23 09:54 pm N 11.8 19.0----1010.0- -2.1- -2.1---
2024-02-23 09:48 pm N 10.8 19.0----1010.0-------
2024-02-23 09:42 pm N 14.4 25.2----1009.9-------
2024-02-23 09:36 pm N 12.9 29.3----1009.9-------
2024-02-23 09:30 pm N 8.2 13.4----1009.8- -1.9- -1.9---
2024-02-23 09:24 pm N 11.8 12.9----1009.8- -2.1- -2.1---
2024-02-23 09:18 pm N 10.8 11.8----1009.7- -1.9- -1.9---
2024-02-23 09:12 pm N 10.8 13.9----1009.7- -1.8- -1.8---
2024-02-23 09:06 pm N 10.8 23.7----1009.6- -1.7- -1.7---
2024-02-23 09:00 pm N 16.5 21.1----1009.5 +3.2 -1.7- -1.7---
2024-02-23 08:54 pm N 12.4 14.9----1009.4- -1.6- -1.6---
2024-02-23 08:48 pm N 10.8 14.9----1009.3- -1.6-----
2024-02-23 08:42 pm N 10.8 14.4----1009.3- -1.4-----
2024-02-23 08:36 pm N 10.3 12.9----1009.2- -1.1-----
2024-02-23 08:30 pm N 10.8 12.9----1009.0- -1.0- -1.0---
2024-02-23 08:24 pm N 10.8 16.0----1008.9- -0.9- -0.9---
2024-02-23 08:18 pm N 10.3 16.0----1008.7- -0.7- -0.7---
2024-02-23 08:12 pm N 9.8 15.4----1008.5- -0.6- -0.6---
2024-02-23 08:06 pm N 11.3 16.0----1008.4- -0.7- -0.7---
2024-02-23 08:00 pm N 9.3 12.4----1008.4 +2.2 -0.6- -0.6---
2024-02-23 07:54 pm N 10.8 13.4----1008.2- -0.6- -0.6---
2024-02-23 07:48 pm N 10.3 14.9----1008.1- -0.5- -0.5---
2024-02-23 07:42 pm N 10.3 13.4----1008.0- -0.4- -0.4---
2024-02-23 07:36 pm N 10.3 12.4----1007.9- -0.5- -0.5---
2024-02-23 07:30 pm N 10.8 13.9----1007.8-------
2024-02-23 07:24 pm N 9.8 13.4----1007.7-------
2024-02-23 07:18 pm N 11.3 14.4----1007.6-------
2024-02-23 07:12 pm N 10.3 15.4----1007.5-------
2024-02-23 07:06 pm N 9.3 13.4----1007.4-------
2024-02-23 07:00 pm N 13.4 16.5----1007.3 +1.5------
2024-02-23 06:54 pm N 11.8 14.9----1007.2-------
2024-02-23 06:48 pm N 12.4 14.9----1007.1-------
2024-02-23 06:42 pm N 12.4 14.4----1006.9-------
2024-02-23 06:36 pm N 10.3 13.4----1006.6-------
2024-02-23 06:18 pm N 9.8 12.9----1006.4-------
2024-02-23 06:12 pm N 9.8 12.9----1006.4-------
2024-02-23 06:06 pm N 9.3 12.4----1006.3-------
2024-02-23 06:00 pm N 7.7 10.8----1006.3 +1.2------
2024-02-23 05:54 pm N 7.2 9.8----1006.1-------
2024-02-23 05:48 pm N 7.2 9.3----1006.2- 2.3- 0.5---
2024-02-23 05:42 pm N 7.2 9.3----1006.3- 2.4- 0.6---
2024-02-23 05:36 pm N 6.7 9.3----1006.3- 2.5- 0.8---
2024-02-23 05:30 pm N 7.2 9.3----1006.4- 2.5- 0.7---
2024-02-23 05:24 pm N 7.2 8.8----1006.3- 2.5- 0.7---
2024-02-23 05:00 pm N 6.2 9.8----1006.2 +1.4 2.6- 0.8---
2024-02-23 04:54 pm N 8.2 9.8----1006.3- 2.6- 0.8---
2024-02-23 04:48 pm N 7.2 9.8----1006.3- 2.6- 0.8---
2024-02-23 04:42 pm N 7.2 9.8----1006.3- 2.6- 0.8---
2024-02-23 04:36 pm N 6.7 9.3----1006.3- 2.7- 1.0---
2024-02-23 04:30 pm N 7.2 9.3----1006.2- 2.8- 1.0---
2024-02-23 04:24 pm N 6.2 9.3----1006.1- 2.8- 1.1---
2024-02-23 04:18 pm N 7.7 10.3----1006.0- 2.8- 1.0---
2024-02-23 04:12 pm N 8.2 10.3----1005.8- 2.9- 1.1---
2024-02-23 04:06 pm N 6.7 9.8----1005.8- 3.1- 1.2---
2024-02-23 04:00 pm N 7.7 10.3----1005.8 +0.8 3.1- 1.2---
2024-02-23 03:54 pm N 7.2 8.8----1005.7- 3.3- 1.4---
2024-02-23 03:48 pm N 7.2 9.3----1005.6- 3.4- 1.4---
2024-02-23 03:42 pm N 7.2 8.8----1005.6- 3.3- 1.3---
2024-02-23 03:36 pm N 6.2 8.8----1005.6- 3.5- 1.6---
2024-02-23 03:30 pm N 6.7 9.3----1005.5- 3.5- 1.6---
2024-02-23 03:24 pm N 7.2 9.3----1005.5- 3.5- 1.6---
2024-02-23 03:18 pm N 5.7 8.2----1005.4- 3.6- 1.7---
2024-02-23 03:12 pmNNE 5.7 7.7----1005.3- 3.5- 1.5---
2024-02-23 03:06 pmNNE 4.6 6.2----1005.3- 3.7- 1.7---
2024-02-23 03:00 pm N 4.6 6.7----1005.1 +0.0 3.9- 1.9---
2024-02-23 02:54 pm N 4.6 7.2----1005.0- 3.9- 1.7---
2024-02-23 02:48 pm N 5.7 6.7----1005.0- 3.8- 1.4---
2024-02-23 02:42 pm N 4.6 6.2----1005.0- 3.8- 1.3---
2024-02-23 02:36 pmNNE 4.6 6.7----1004.9- 3.7- 1.1---
2024-02-23 02:30 pmNNE 5.7 8.2----1004.9- 3.8- 1.0---
2024-02-23 02:24 pmNNE 5.7 7.2----1004.8- 4.1- 1.2---
2024-02-23 02:18 pm N 5.7 7.7----1004.8- 4.2- 1.1---
2024-02-23 02:12 pmNNE 5.7 8.2----1004.8- 4.3- 1.1---
2024-02-23 02:06 pm N 5.1 7.7----1004.8- 4.3- 1.0---
2024-02-23 02:00 pmNNE 5.7 8.2----1004.8 +0.0 4.4- 1.0---
2024-02-23 01:54 pm N 5.1 7.7----1004.9- 4.4- 0.9---
2024-02-23 01:48 pm N 6.2 7.7----1004.8- 4.2- 0.6---
2024-02-23 01:42 pmNNE 5.1 7.7----1004.8- 4.3- 0.7---
2024-02-23 01:36 pmNNE 5.1 6.7----1004.9- 4.3- 0.6---
2024-02-23 01:30 pm N 5.7 7.7----1004.8- 4.3- 0.6---
2024-02-23 01:24 pm N 5.7 7.2----1004.7- 4.3- 0.5---
2024-02-23 01:18 pmNNE 6.2 7.7----1004.7-------
2024-02-23 01:12 pmNNE 4.6 7.2----1004.8- 4.3- 0.4---
2024-02-23 01:06 pmNNE 6.2 8.2----1004.9- 4.2- 0.1---
2024-02-23 01:00 pmNNE 5.7 7.2----1005.0 +0.0 4.4- 0.1---
2024-02-23 12:54 pmNNE 5.7 7.2----1005.0- 4.5- 0.1---
2024-02-23 12:48 pmNNE 5.7 7.2----1005.0- 4.7- 0.2---
2024-02-23 12:42 pm N 5.7 7.2----1005.0- 4.5- 0.0---
2024-02-23 12:36 pmNNE 5.7 7.2----1004.9- 4.7- -0.1---
2024-02-23 12:30 pm N 5.1 6.7----1004.9- 4.8- -0.3---
2024-02-23 12:24 pm N 6.2 7.2----1004.9- 4.8- -0.7---
2024-02-23 12:18 pm N 5.7 7.2----1005.0- 4.9- -0.9---
2024-02-23 12:12 pmNNE 4.6 6.2----1005.0- 5.3- -0.9---
2024-02-23 12:06 pmNNE 5.7 8.2----1005.1- 5.3- -1.6---
2024-02-23 12:00 pmNNE 4.6 6.2----1005.1 +0.0 6.3- -1.4---
2024-02-23 11:54 amNNE 5.1 7.7----1005.1- 6.2- -1.3---
2024-02-23 11:48 amNNE 6.2 11.3----1005.0- 6.0- -1.0---
2024-02-23 11:42 amNNE 5.1 12.4----1005.0- 6.2- -0.3---
2024-02-23 11:36 am NE 5.7 11.8----1005.0- 6.3- -0.1---
2024-02-23 11:30 am NE 5.1 7.2----1005.0- 6.1- 0.3---
2024-02-23 11:24 am NE 6.2 8.2----1004.9- 5.2- -0.6---
2024-02-23 11:18 am NE 5.7 7.2----1004.9- 6.1- -0.7---
2024-02-23 11:12 amENE 4.6 5.1----1004.8- 6.4- -0.5---
2024-02-23 11:06 amENE 3.6 4.6----1005.0- 6.3- 0.0---
2024-02-23 11:00 amENE 4.1 4.6----1005.0 +0.0 5.9- -0.7---
2024-02-23 10:54 amENE 3.1 4.1----1005.0- 6.5- -0.7---
2024-02-23 10:48 amENE 3.6 7.2----1005.0- 6.4- -1.6---
2024-02-23 10:42 am N 2.6 6.2----1004.9- 8.5- -1.6---
2024-02-23 10:36 amNNE 3.1 6.2----1004.9- 8.1- -1.6---
2024-02-23 10:30 amSSW 3.1 6.7----1005.0- 8.0- -1.7---
2024-02-23 10:24 amNNE 3.1 7.2----1005.0- 8.1- -1.4---
2024-02-23 10:18 am W 3.6 6.7----1005.0- 7.8- -1.7---
2024-02-23 10:12 am W 2.1 6.7----1005.1- 7.5- -1.6---
2024-02-23 10:06 am NW 4.6 6.7----1005.2- 7.9- -1.4---
2024-02-23 10:00 am W 2.1 6.2----1005.2 +0.5 8.1- -0.9---
2024-02-23 09:54 amWNW 3.1 5.7----1005.1- 8.3- -0.5---